Weather History for KLJF - November, 2012

Change the Weather History Date:

Sunday, November 4, 2012

  Actual Average Record
Temperature  
Mean Temperature 38 °F -  
Max Temperature 42 °F 44 °F 74 °F (1975)
Min Temperature 35 °F 28 °F -1 °F (1991)
Degree Days  
Heating Degree Days 26    
Moisture  
Dew Point 34 °F    
Average Humidity 85    
Maximum Humidity 93    
Minimum Humidity 70    
Precipitation  
Precipitation 0.00 in - - ()
Sea Level Pressure  
Sea Level Pressure 30.17 in    
Wind  
Wind Speed 4 mph (East)    
Max Wind Speed 10 mph    
Max Gust Speed -    
Visibility 10 miles    
Events      
Averages and records for this station are not official NWS values.
T = Trace of Precipitation, MM = Missing Value Source: NWS Daily Summary

Daily Weather History Graph

Daily Weather History Graph

Search for Another Location

Airport or City:

Trip Planner

Search our weather history database for the weather conditions in past years. The results will help you decide how hot, cold, wet, or windy it might be!

Date:

Astronomy

Nov. 04, 2012 Rise Set
Actual Time 7:01 AM CST 5:01 PM CST
Civil Twilight 6:30 AM CST 5:32 PM CST
Nautical Twilight 5:55 AM CST 6:06 PM CST
Astronomical Twilight 5:21 AM CST 6:41 PM CST
Moon 9:37 PM CST 11:48 AM CST
Length of Visible Light 11h 01m
Length of Day
9h 59m
Waning Gibbous, 72% of the Moon is Illuminated
Nov 4
Waning Gibbous
Nov 6
Last Quarter
Nov 13
New
Nov 20
First Quarter
Nov 28
Full

Hourly Weather History & Observations

Time (CST) Temp. Windchill Dew Point Humidity Pressure Visibility Wind Dir Wind Speed Gust Speed Precip Events Conditions
12:13 AM 35.6 °F 32.8 °F 30.2 °F 81% 30.21 in 10.0 mi SE 3.5 mph - N/A   Overcast
12:33 AM 35.6 °F 32.8 °F 30.2 °F 81% 30.21 in 10.0 mi ESE 3.5 mph - N/A   Overcast
12:53 AM 35.6 °F 32.8 °F 30.2 °F 81% 30.21 in 10.0 mi ESE 3.5 mph - N/A   Overcast
1:13 AM 35.6 °F - 32.0 °F 87% 30.21 in 10.0 mi Calm Calm - N/A   Overcast
1:33 AM 35.6 °F 31.7 °F 32.0 °F 87% 30.20 in 10.0 mi East 4.6 mph - N/A   Unknown
1:53 AM 35.6 °F 32.8 °F 32.0 °F 87% 30.20 in 10.0 mi East 3.5 mph - N/A   Overcast
1:12 AM 35.6 °F - 32.0 °F 87% 30.20 in 10.0 mi Calm Calm - N/A   Unknown
1:33 AM 35.6 °F - 32.0 °F 87% 30.21 in 10.0 mi Calm Calm - N/A   Overcast
1:53 AM 35.6 °F - 32.0 °F 87% 30.20 in 10.0 mi Calm Calm - N/A   Unknown
2:12 AM 35.6 °F - 32.0 °F 87% 30.21 in 10.0 mi Calm Calm - N/A   Overcast
2:33 AM 35.6 °F 32.8 °F 32.0 °F 87% 30.21 in 10.0 mi ESE 3.5 mph - N/A   Overcast
2:53 AM 35.6 °F 32.8 °F 32.0 °F 87% 30.21 in 10.0 mi ESE 3.5 mph - N/A   Overcast
3:13 AM 35.6 °F - 32.0 °F 87% 30.21 in 10.0 mi Calm Calm - N/A   Overcast
3:33 AM 35.6 °F 32.8 °F 32.0 °F 87% 30.20 in 10.0 mi East 3.5 mph - N/A   Overcast
3:53 AM 35.6 °F - 32.0 °F 87% 30.20 in 10.0 mi Calm Calm - N/A   Overcast
4:13 AM 35.6 °F - 32.0 °F 87% 30.20 in 10.0 mi Calm Calm - N/A   Overcast
4:33 AM 35.6 °F - 32.0 °F 87% 30.20 in 10.0 mi Calm Calm - N/A   Unknown
4:53 AM 35.6 °F - 33.8 °F 93% 30.20 in 10.0 mi Calm Calm - N/A   Overcast
5:13 AM 35.6 °F - 33.8 °F 93% 30.20 in 10.0 mi Calm Calm - N/A   Unknown
5:33 AM 35.6 °F 32.8 °F 33.8 °F 93% 30.20 in 10.0 mi ESE 3.5 mph - N/A   Overcast
5:53 AM 35.6 °F - 33.8 °F 93% 30.20 in 10.0 mi Calm Calm - N/A   Overcast
6:13 AM 35.6 °F - 33.8 °F 93% 30.20 in 10.0 mi Calm Calm - N/A   Overcast
6:33 AM 35.6 °F - 32.0 °F 87% 30.20 in 10.0 mi Calm Calm - N/A   Overcast
6:53 AM 35.6 °F 32.8 °F 33.8 °F 93% 30.20 in 10.0 mi ENE 3.5 mph - N/A   Overcast
7:13 AM 35.6 °F 32.8 °F 32.0 °F 87% 30.20 in 10.0 mi East 3.5 mph - N/A   Overcast
7:33 AM 35.6 °F 31.7 °F 32.0 °F 87% 30.20 in 10.0 mi East 4.6 mph - N/A   Overcast
7:53 AM 35.6 °F 29.9 °F 33.8 °F 93% 30.20 in 10.0 mi East 6.9 mph - N/A   Overcast
8:13 AM 35.6 °F 29.9 °F 33.8 °F 93% 30.20 in 10.0 mi East 6.9 mph - N/A   Overcast
8:33 AM 35.6 °F 30.7 °F 33.8 °F 93% 30.20 in 10.0 mi East 5.8 mph - N/A   Overcast
8:53 AM 35.6 °F 30.7 °F 32.0 °F 87% 30.20 in 10.0 mi East 5.8 mph - N/A   Overcast
9:13 AM 35.6 °F 30.7 °F 33.8 °F 93% 30.19 in 10.0 mi East 5.8 mph - N/A   Overcast
9:33 AM 35.6 °F 30.7 °F 33.8 °F 93% 30.19 in 10.0 mi East 5.8 mph - N/A   Overcast
9:53 AM 37.4 °F 32.8 °F 33.8 °F 87% 30.19 in 10.0 mi East 5.8 mph - N/A   Overcast
10:13 AM 37.4 °F 31.4 °F 33.8 °F 87% 30.18 in 10.0 mi East 8.1 mph - N/A   Overcast
10:33 AM 37.4 °F 31.4 °F 33.8 °F 87% 30.18 in 10.0 mi East 8.1 mph - N/A   Overcast
10:53 AM 37.4 °F 32.1 °F 33.8 °F 87% 30.18 in 10.0 mi East 6.9 mph - N/A   Overcast
11:13 AM 39.2 °F 33.0 °F 33.8 °F 81% 30.18 in 10.0 mi ESE 9.2 mph - N/A   Overcast
11:33 AM 39.2 °F 33.0 °F 33.8 °F 81% 30.17 in 10.0 mi ESE 9.2 mph - N/A   Overcast
11:53 AM 39.2 °F 32.5 °F 33.8 °F 81% 30.17 in 10.0 mi ESE 10.4 mph - N/A   Overcast
12:13 PM 39.2 °F 33.0 °F 35.6 °F 87% 30.16 in 10.0 mi ESE 9.2 mph - N/A   Overcast
12:33 PM 39.2 °F 33.0 °F 35.6 °F 87% 30.16 in 10.0 mi ESE 9.2 mph - N/A   Overcast
12:53 PM 41.0 °F 35.2 °F 35.6 °F 81% 30.15 in 10.0 mi East 9.2 mph - N/A   Overcast
1:13 PM 42.8 °F 37.5 °F 35.6 °F 76% 30.14 in 10.0 mi ESE 9.2 mph - N/A   Overcast
1:33 PM 42.8 °F 37.0 °F 35.6 °F 76% 30.13 in 10.0 mi East 10.4 mph - N/A   Overcast
1:53 PM 42.8 °F 38.6 °F 35.6 °F 76% 30.13 in 10.0 mi East 6.9 mph - N/A   Overcast
2:13 PM 42.8 °F 38.0 °F 33.8 °F 70% 30.13 in 10.0 mi East 8.1 mph - N/A   Overcast
2:33 PM 41.0 °F 35.8 °F 33.8 °F 76% 30.13 in 10.0 mi East 8.1 mph - N/A   Overcast
2:53 PM 41.0 °F 36.4 °F 35.6 °F 81% 30.13 in 10.0 mi ENE 6.9 mph - N/A   Overcast
3:13 PM 41.0 °F 35.8 °F 33.8 °F 76% 30.13 in 10.0 mi East 8.1 mph - N/A   Overcast
3:33 PM 41.0 °F 35.8 °F 33.8 °F 76% 30.13 in 10.0 mi East 8.1 mph - N/A   Overcast
3:53 PM 39.2 °F 33.0 °F 33.8 °F 81% 30.13 in 10.0 mi East 9.2 mph - N/A   Overcast
4:13 PM 39.2 °F 34.2 °F 33.8 °F 81% 30.13 in 10.0 mi East 6.9 mph - N/A   Overcast
4:33 PM 39.2 °F 34.2 °F 33.8 °F 81% 30.13 in 10.0 mi ENE 6.9 mph - N/A   Overcast
4:53 PM 39.2 °F 35.0 °F 33.8 °F 81% 30.13 in 10.0 mi East 5.8 mph - N/A   Overcast
5:13 PM 39.2 °F 35.9 °F 33.8 °F 81% 30.13 in 10.0 mi ENE 4.6 mph - N/A   Overcast
5:33 PM 39.2 °F 35.0 °F 33.8 °F 81% 30.13 in 10.0 mi East 5.8 mph - N/A   Overcast
5:53 PM 39.2 °F 35.0 °F 33.8 °F 81% 30.13 in 10.0 mi ENE 5.8 mph - N/A   Overcast
6:13 PM 39.2 °F 35.0 °F 33.8 °F 81% 30.14 in 10.0 mi ENE 5.8 mph - N/A   Overcast
6:33 PM 39.2 °F 35.9 °F 33.8 °F 81% 30.14 in 10.0 mi ENE 4.6 mph - N/A   Overcast
6:53 PM 39.2 °F 35.0 °F 33.8 °F 81% 30.14 in 10.0 mi ENE 5.8 mph - N/A   Overcast
7:13 PM 39.2 °F 35.9 °F 33.8 °F 81% 30.14 in 10.0 mi ENE 4.6 mph - N/A   Overcast
7:33 PM 39.2 °F 35.9 °F 33.8 °F 81% 30.14 in 10.0 mi ENE 4.6 mph - N/A   Overcast
7:53 PM 39.2 °F 37.0 °F 33.8 °F 81% 30.14 in 10.0 mi NE 3.5 mph - N/A   Overcast
8:13 PM 39.2 °F 35.9 °F 33.8 °F 81% 30.14 in 10.0 mi NE 4.6 mph - N/A   Overcast
8:33 PM 39.2 °F 35.0 °F 33.8 °F 81% 30.14 in 10.0 mi NE 5.8 mph - N/A   Overcast
8:53 PM 39.2 °F 34.2 °F 35.6 °F 87% 30.13 in 10.0 mi NE 6.9 mph - N/A   Overcast
9:13 PM 39.2 °F 34.2 °F 33.8 °F 81% 30.13 in 10.0 mi NE 6.9 mph - N/A   Overcast
9:33 PM 39.2 °F 33.6 °F 35.6 °F 87% 30.13 in 7.0 mi NE 8.1 mph - N/A   Overcast
9:53 PM 39.2 °F 33.6 °F 35.6 °F 87% 30.13 in 7.0 mi ENE 8.1 mph - N/A   Overcast
10:13 PM 37.4 °F 32.1 °F 35.6 °F 93% 30.13 in 5.0 mi ENE 6.9 mph - N/A   Light Drizzle
10:33 PM 37.4 °F 31.4 °F 35.6 °F 93% 30.13 in 5.0 mi ENE 8.1 mph - N/A   Overcast
10:53 PM 37.4 °F 30.8 °F 35.6 °F 93% 30.13 in 5.0 mi ENE 9.2 mph - N/A   Overcast